Temperature
5 5 5 5 6 6 6 6 6 7 8 8 8 8 9 9 9 9 9 10 11 12 12 13 13 13 13 13 13 14 14 14 14 14 14 13 13 13 13 13 13 13 13 12
4 5 5 6 6 6 6 6 6 7 8 8 7 8 8 8 8 9 9 9 10 11 12 12 12 13 13 13 13 13 13 14 14 14 14 13 13 13 13 13 13 12 12 12
4 5 6 6 6 6 6 6 6 7 7 7 8 8 8 8 8 9 9 9 10 10 11 11 12 12 12 13 13 13 13 13 13 13 13 13 13 13 13 13 12 12 12 12
4 5 5 6 6 6 6 6 7 7 6 6 7 7 7 7 7 7 8 8 9 10 10 11 11 12 12 12 12 13 13 13 13 13 13 13 13 13 13 13 12 12 12 12
4 4 5 5 6 6 6 6 6 6 6 6 6 6 7 6 7 7 7 7 8 9 10 10 11 11 12 12 12 12 13 13 13 13 13 13 13 13 13 12 12 12 12 12
4 4 5 5 6 6 6 6 6 5 5 6 6 6 6 5 6 6 6 7 8 8 9 10 11 11 11 11 12 12 12 12 13 12 12 12 12 12 12 12 12 12 11 11
3 4 4 5 5 5 5 5 5 5 5 5 6 6 5 6 6 6 6 6 7 8 9 9 10 10 11 11 11 11 12 12 12 12 12 12 12 12 12 12 12 11 11 11
2 3 4 4 4 4 5 5 5 5 5 5 5 5 5 5 5 5 5 6 6 7 8 9 9 10 10 10 11 11 11 11 11 11 11 11 11 11 11 11 11 11 11 11
2 2 4 4 4 4 4 4 4 4 4 4 4 4 5 5 5 4 4 5 5 6 7 8 9 9 9 10 10 10 10 11 11 11 11 11 11 11 11 11 10 10 10 10
2 2 3 3 4 4 4 4 3 3 4 4 4 4 5 4 4 4 3 4 5 5 6 7 8 8 9 9 10 10 10 10 10 10 10 10 10 10 10 10 10 10 10 9
2 1 2 3 3 3 3 3 3 3 3 4 4 5 4 4 3 3 3 3 4 5 5 6 7 7 8 9 9 9 9 9 9 9 10 10 10 10 10 9 9 9 9 9
1 1 1 2 3 3 3 3 2 3 3 2 3 4 4 3 3 2 2 3 4 4 5 6 6 7 7 8 8 8 8 8 8 9 9 9 9 9 9 9 9 9 9 8
1 1 1 2 3 2 2 2 2 2 2 2 3 4 3 2 2 2 2 3 3 4 4 5 5 6 6 7 7 7 8 8 8 8 8 8 8 8 8 8 8 8 8 8
2 -0 0 1 2 1 1 1 1 2 1 2 2 2 3 2 2 2 2 2 3 3 3 4 4 5 5 6 6 6 7 7 7 7 7 7 7 7 7 7 7 7 7 7
0 -1 -1 -0 0 1 0 1 1 1 1 1 2 2 2 1 1 1 1 2 2 2 3 3 3 4 5 5 5 5 6 6 6 6 6 6 6 6 6 6 6 6 6 6
-1 -1 -1 -0 0 1 1 1 1 1 1 1 1 1 1 1 1 1 1 1 1 1 2 2 3 3 4 4 4 5 5 5 5 5 5 5 5 5 5 6 5 5 5 5
-2 -2 -1 -1 -0 0 -0 -0 -0 0 0 0 1 1 0 0 0 0 0 0 1 1 1 2 2 3 3 3 4 4 4 4 4 4 4 4 4 4 4 4 4 4 5 4
-2 -2 -2 -2 -1 -1 0 -0 -1 -0 -0 -0 0 -0 -0 -0 -0 0 0 0 0 0 1 1 2 2 2 3 3 3 3 3 3 3 3 3 3 3 3 3 4 4 4 4
-2 -2 -3 -3 -2 -1 -0 -1 -1 -1 -1 -1 -1 -1 -1 -1 -0 -0 0 -0 -0 0 0 1 1 2 2 2 2 2 2 2 2 3 3 3 3 3 3 3 3 3 3 3
-3 -3 -3 -3 -2 -1 -0 -1 -1 -1 -1 -1 -1 -1 -1 -1 -1 -1 -1 -1 -0 -0 0 0 1 1 1 1 1 2 2 2 2 2 2 2 2 2 2 2 2 2 2 2
-3 -4 -4 -4 -3 -2 -2 -2 -1 -1 -1 -1 -1 -1 -2 -2 -2 -1 -1 -1 -1 -1 -1 -0 0 0 1 1 1 1 1 1 1 1 2 2 2 2 2 2 2 2 2 2
-4 -4 -4 -4 -3 -2 -2 -2 -2 -2 -1 -1 -1 -1 -2 -2 -2 -2 -2 -2 -1 -1 -1 -1 -1 -0 -0 -0 0 0 1 1 0 1 1 1 1 1 1 1 1 1 1 1
-5 -4 -4 -4 -2 -2 -2 -2 -1 -1 -2 -2 -2 -2 -2 -2 -3 -3 -2 -2 -2 -2 -2 -2 -1 -1 -1 -1 -1 -1 -0 -0 -0 -0 0 0 0 0 0 0 1 0 0 0
-5 -5 -5 -5 -4 -3 -2 -2 -1 -2 -2 -2 -2 -2 -2 -3 -3 -3 -3 -3 -3 -2 -2 -2 -2 -2 -2 -2 -2 -2 -1 -1 -1 -1 -1 -1 -0 -0 -0 -0 -0 -0 -0 -0
-5 -6 -5 -5 -4 -3 -2 -2 -2 -2 -2 -2 -2 -3 -3 -3 -3 -3 -3 -3 -3 -3 -3 -3 -3 -3 -2 -2 -2 -2 -2 -2 -2 -1 -1 -1 -1 -1 -1 -1 -1 -1 -1 -1
-6 -6 -5 -4 -3 -4 -2 -1 -2 -2 -2 -2 -3 -3 -3 -3 -3 -3 -4 -4 -4 -4 -4 -4 -3 -3 -3 -3 -3 -3 -3 -2 -2 -2 -2 -2 -2 -2 -2 -2 -2 -2 -2 -2
Wind_Speed
2 2 3 5 5 4 4 3 4 5 4 3 6 9 10 5 3 3 4 4 5 7 5 3 4 5 6 6 7 9 8 9 8 7 7 7 6 5 4 5 7 9 9 10
2 2 5 4 3 3 4 4 4 4 3 2 5 8 8 5 4 3 4 4 5 5 4 2 2 3 5 6 7 8 9 9 8 6 6 5 5 4 4 4 6 8 9 10
2 3 3 2 1 1 3 6 6 4 4 2 2 6 6 4 3 3 3 3 4 4 4 4 3 3 4 6 7 8 9 8 8 7 6 5 4 4 3 4 4 5 9 10
1 3 2 2 2 2 5 4 5 4 2 3 1 4 6 4 5 5 5 5 4 4 4 3 3 3 5 6 6 7 8 8 8 8 8 10 7 6 5 5 5 5 7 8
2 2 1 3 5 3 5 4 3 3 3 2 1 3 6 3 5 7 6 6 5 4 3 3 3 4 4 4 5 5 6 7 7 8 9 10 7 5 4 4 5 5 4 6
3 2 1 3 3 4 3 1 1 1 1 4 5 4 5 3 5 6 6 6 5 4 3 3 3 2 1 1 3 3 5 6 6 8 9 9 10 8 8 7 6 5 3 4
4 3 3 1 2 2 1 2 1 1 1 6 3 4 6 4 4 4 6 6 5 4 3 2 2 1 1 2 3 4 5 5 6 7 7 8 9 10 10 9 8 6 4 3
3 4 3 2 1 2 2 3 3 3 4 3 1 5 5 3 4 4 5 5 5 4 3 2 2 2 2 3 3 4 5 4 5 6 6 6 7 7 6 7 7 7 5 5
1 4 4 3 2 2 1 2 2 2 1 2 4 4 5 3 6 7 7 7 6 6 4 3 2 2 1 2 3 4 5 4 5 5 5 6 7 6 6 6 5 5 4 4
1 4 5 5 2 2 2 3 2 2 2 3 4 4 3 5 7 8 8 8 7 6 6 5 4 3 2 0 1 2 3 4 3 4 5 5 5 6 6 6 6 6 5 5
0 1 5 3 0 2 1 1 1 1 2 3 2 4 2 3 4 5 6 7 7 7 6 5 4 4 3 2 1 2 2 3 3 3 3 4 4 5 5 6 6 6 5 6
0 1 3 5 5 2 2 2 3 3 3 2 2 5 2 1 3 4 6 7 7 7 6 5 5 5 5 4 2 2 2 2 2 3 4 4 4 4 5 5 5 5 5 5
1 1 3 4 3 3 1 1 1 2 1 2 3 5 2 4 6 6 6 8 8 7 7 6 6 6 5 4 3 2 2 3 3 3 4 4 4 4 5 5 5 5 5 5
1 1 3 6 5 2 4 5 2 2 3 3 5 7 8 8 8 9 8 8 7 7 6 6 6 6 6 5 4 2 2 3 3 4 5 4 4 4 4 5 5 5 5 5
2 1 3 6 6 4 5 7 4 4 6 6 6 6 8 8 7 7 6 7 7 7 7 7 6 5 5 5 4 3 2 3 3 4 5 4 4 4 4 5 5 5 5 4
2 1 2 4 4 4 6 7 7 6 6 6 6 8 6 5 5 5 5 6 6 7 7 7 6 5 5 4 4 3 2 2 3 4 4 4 5 5 4 4 5 5 5 4
1 1 1 4 5 4 5 6 5 4 4 5 7 6 4 5 6 6 5 5 6 7 7 7 6 5 5 4 3 2 2 2 3 4 4 4 4 4 4 4 4 5 4 4
3 2 1 2 3 4 6 2 2 3 4 4 4 3 2 4 5 5 4 4 6 7 7 7 6 5 5 4 3 2 2 2 3 4 4 3 4 4 4 4 4 4 3 4
3 4 2 1 2 6 6 3 0 2 5 2 2 3 4 4 5 4 4 4 5 6 7 6 5 5 4 3 2 2 2 3 3 3 3 3 4 4 4 4 3 3 4 3
2 2 2 2 2 5 5 3 2 0 4 2 1 4 4 4 4 5 6 6 6 7 6 6 5 5 4 3 2 2 2 2 1 1 2 2 3 4 4 3 3 3 3 3
1 1 2 3 4 7 5 3 1 2 5 4 3 4 3 3 5 6 6 6 6 6 6 5 5 4 4 3 2 2 2 1 1 1 2 2 3 3 4 4 3 3 3 3
4 3 3 3 4 7 2 2 3 5 4 3 4 4 3 4 5 5 5 6 6 6 6 5 5 5 4 3 2 2 1 1 2 2 2 2 2 3 3 4 3 3 4 3
6 6 5 7 7 4 2 3 3 2 3 4 3 4 3 3 4 4 4 5 5 5 5 5 4 5 5 4 2 2 2 2 2 3 3 3 3 3 3 3 3 3 3 2
4 3 4 5 7 6 6 5 4 3 4 4 4 4 3 3 4 5 4 4 4 4 5 4 4 4 5 4 3 1 1 2 2 3 2 2 3 3 3 2 2 2 2 2
6 4 4 6 7 6 5 6 6 4 4 4 4 3 3 3 4 4 4 3 3 4 4 4 4 3 4 4 3 3 2 2 2 2 2 2 2 2 2 2 1 1 1 2
6 7 7 8 6 5 6 5 4 4 4 4 3 3 3 3 4 3 3 2 2 3 3 3 4 4 4 4 4 3 2 2 2 2 2 2 2 1 1 1 1 2 1 1
Wind_Direction
35 94 211 229 211 214 206 213 246 256 271 260 249 265 276 283 286 283 284 269 262 256 263 252 220 202 189 183 182 180 177 172 166 168 168 166 171 169 164 166 166 167 165 164
57 261 258 254 227 225 217 235 258 281 286 266 263 271 272 270 257 257 267 274 272 282 299 287 231 196 188 190 190 185 184 178 177 178 174 167 158 160 161 156 160 170 169 167
174 271 275 242 243 283 253 215 232 256 314 318 300 290 277 283 268 311 301 290 286 269 269 269 243 211 197 196 197 194 188 182 179 168 153 138 127 122 147 165 172 175 172 169
300 288 247 237 238 220 264 236 237 253 263 277 190 263 277 294 314 322 312 313 306 293 277 265 243 224 211 210 202 194 186 183 179 169 168 167 173 176 184 179 175 167 167 165
290 328 182 230 251 230 240 275 253 238 208 274 251 221 283 323 308 309 306 308 306 297 277 260 247 225 219 211 196 190 182 182 180 177 176 174 175 174 159 152 158 168 167 166
277 279 235 254 268 235 249 340 29 31 147 253 229 204 276 277 270 299 309 308 298 298 294 280 281 252 215 205 191 180 176 179 179 180 178 178 175 170 162 165 174 175 172 166
338 327 324 322 345 341 83 109 38 341 253 250 221 205 250 266 294 288 302 308 299 297 294 299 313 290 223 207 196 184 178 182 181 177 181 183 179 177 177 177 180 178 177 179
4 316 321 343 233 249 227 180 178 205 223 273 276 232 252 275 326 340 338 330 329 325 319 305 287 266 228 213 200 188 186 182 179 178 180 174 171 176 180 180 179 182 183 183
346 284 310 312 303 171 169 212 199 182 259 250 260 283 298 329 355 1 357 356 348 340 335 335 336 324 283 228 208 191 186 175 175 176 169 169 170 168 171 170 170 171 169 165
207 286 304 311 357 1 174 160 131 156 192 246 274 261 265 319 337 343 349 346 342 348 349 355 355 348 341 273 183 161 165 170 168 160 164 171 171 167 165 162 166 166 166 159
212 247 309 345 304 263 49 108 136 155 189 184 239 267 248 291 316 330 337 339 338 342 341 342 348 352 3 32 88 127 135 130 140 147 145 145 154 156 157 162 165 162 156 158
324 127 283 269 263 249 196 186 172 191 244 216 214 269 307 314 329 344 340 342 343 343 344 349 359 11 18 25 45 90 119 124 132 133 128 131 136 141 148 153 155 152 151 150
5 76 331 333 337 14 16 314 203 175 169 203 210 264 326 359 351 349 344 343 345 347 354 2 9 11 10 12 26 63 103 113 115 117 118 117 125 133 138 139 140 140 140 141
16 135 207 226 251 285 299 302 265 181 203 233 238 261 299 326 332 336 341 341 343 348 354 1 3 3 4 8 16 34 79 101 108 109 111 114 117 122 125 126 124 126 130 134
67 224 248 263 271 265 272 284 280 232 220 220 243 256 280 305 312 317 330 339 349 352 352 352 351 353 1 9 13 21 50 89 105 110 111 113 109 108 112 115 119 122 122 124
46 233 288 289 278 275 282 282 268 255 240 229 247 270 281 304 316 323 337 344 346 342 338 338 343 348 353 357 1 14 25 68 102 106 105 108 108 106 106 109 115 118 116 114
248 186 299 285 306 324 287 268 245 236 234 213 234 248 304 333 333 326 330 335 328 327 328 330 333 334 335 341 351 10 18 64 94 102 100 103 110 110 107 108 107 111 114 114
191 176 187 295 3 262 254 271 241 247 270 248 251 275 305 304 309 314 328 327 326 328 328 329 330 330 334 345 360 29 55 81 97 105 107 108 115 116 110 109 107 105 105 109
194 170 159 164 266 279 290 299 278 251 287 263 253 293 315 330 331 325 340 338 327 323 322 321 321 323 334 344 3 50 59 76 87 102 114 120 122 120 114 112 113 112 109 103
69 116 143 156 218 253 267 299 303 166 286 295 298 297 312 338 317 301 331 334 331 332 331 333 335 338 341 344 23 80 78 80 87 100 114 126 130 128 127 126 121 116 117 118
47 67 182 204 234 265 270 295 33 190 265 304 295 297 296 276 266 290 315 324 332 335 336 342 345 347 344 352 46 78 83 76 67 90 99 108 123 128 128 122 119 119 115 110
192 186 203 182 219 258 265 120 194 242 292 302 299 290 274 275 292 304 314 324 334 341 345 349 352 349 349 5 45 62 46 39 65 79 90 95 105 117 117 118 117 118 121 118
206 198 199 203 224 258 236 226 260 273 282 285 284 287 271 279 290 304 315 323 332 340 347 353 355 353 355 10 46 62 21 53 74 77 81 87 91 100 111 121 121 115 120 132
250 206 209 253 264 269 269 268 282 272 270 279 281 282 271 273 289 302 311 319 332 342 345 350 357 359 356 10 32 42 41 67 83 84 83 88 95 92 92 104 122 136 153 161
227 194 215 253 274 295 277 258 264 270 274 282 289 278 264 271 286 291 299 308 324 336 343 350 350 350 350 4 17 20 34 73 87 87 88 85 84 94 89 85 118 175 207 204
203 195 203 235 234 230 266 273 264 263 271 272 278 291 291 271 279 288 297 311 324 331 342 349 356 360 359 10 14 10 23 77 106 101 89 87 88 86 88 81 43 34 24 357
Height
1481 1484 1485 1484 1484 1484 1486 1487 1488 1485 1481 1481 1480 1479 1474 1474 1474 1474 1474 1474 1474 1475 1477 1479 1481 1483 1486 1489 1492 1494 1498 1501 1504 1507 1510 1513 1516 1520 1523 1525 1528 1530 1532 1534
1485 1485 1483 1483 1483 1484 1485 1487 1487 1483 1480 1480 1480 1478 1473 1473 1473 1473 1473 1472 1472 1473 1474 1475 1477 1479 1481 1485 1488 1491 1495 1498 1501 1504 1507 1511 1514 1517 1520 1523 1525 1527 1529 1531
1485 1485 1482 1482 1483 1485 1485 1486 1486 1485 1482 1480 1481 1478 1473 1471 1471 1471 1471 1470 1470 1470 1471 1472 1473 1475 1478 1481 1484 1488 1491 1494 1498 1501 1504 1508 1511 1514 1517 1519 1521 1524 1526 1529
1485 1483 1483 1483 1483 1484 1485 1482 1482 1483 1486 1487 1484 1485 1475 1472 1471 1469 1468 1468 1468 1468 1468 1470 1471 1472 1474 1477 1481 1485 1488 1491 1494 1497 1500 1503 1506 1508 1511 1515 1518 1521 1523 1526
1486 1483 1483 1483 1483 1483 1483 1481 1482 1483 1486 1488 1485 1487 1478 1474 1472 1469 1467 1466 1466 1466 1466 1467 1468 1469 1471 1474 1477 1481 1484 1487 1490 1493 1497 1500 1503 1506 1509 1512 1515 1517 1520 1522
1485 1484 1484 1483 1481 1481 1481 1482 1482 1485 1487 1489 1484 1486 1481 1477 1472 1469 1467 1465 1465 1464 1464 1464 1465 1467 1468 1470 1474 1477 1480 1483 1486 1490 1493 1496 1499 1502 1505 1508 1510 1513 1516 1518
1488 1485 1483 1483 1483 1482 1483 1487 1490 1491 1493 1488 1482 1482 1479 1472 1470 1468 1466 1464 1462 1463 1463 1463 1463 1464 1465 1467 1470 1472 1475 1478 1482 1485 1488 1491 1495 1498 1501 1504 1507 1509 1512 1514
1496 1492 1486 1484 1485 1485 1485 1487 1492 1494 1492 1489 1484 1481 1475 1470 1468 1466 1464 1463 1462 1461 1461 1461 1461 1462 1463 1465 1467 1469 1471 1474 1477 1481 1484 1487 1491 1494 1497 1500 1503 1505 1508 1510
1500 1495 1486 1485 1484 1485 1486 1488 1489 1494 1494 1494 1488 1481 1474 1468 1466 1464 1463 1461 1460 1460 1459 1459 1459 1460 1461 1462 1464 1466 1468 1470 1473 1477 1480 1483 1486 1490 1493 1496 1499 1502 1504 1506
1500 1499 1490 1487 1485 1485 1486 1488 1492 1494 1494 1490 1485 1482 1477 1471 1468 1466 1464 1462 1460 1459 1458 1457 1458 1458 1458 1459 1461 1463 1465 1467 1470 1473 1476 1479 1482 1485 1489 1492 1495 1497 1500 1502
1499 1501 1495 1490 1489 1488 1489 1490 1490 1493 1493 1492 1488 1481 1474 1473 1471 1469 1466 1463 1461 1460 1458 1457 1457 1457 1457 1457 1458 1460 1462 1465 1467 1469 1472 1475 1478 1481 1485 1488 1491 1493 1496 1498
1500 1502 1501 1494 1488 1487 1488 1489 1491 1492 1494 1493 1490 1485 1473 1472 1470 1469 1467 1464 1462 1460 1458 1457 1456 1455 1455 1455 1456 1458 1461 1462 1464 1466 1469 1472 1475 1478 1481 1484 1487 1490 1492 1494
1500 1502 1502 1495 1492 1491 1490 1490 1490 1492 1493 1494 1490 1484 1473 1471 1470 1469 1467 1465 1462 1460 1458 1456 1455 1454 1455 1455 1455 1457 1458 1460 1462 1464 1466 1469 1472 1475 1478 1480 1483 1486 1488 1490
1498 1504 1505 1501 1495 1496 1495 1493 1491 1491 1493 1492 1488 1482 1475 1473 1471 1469 1467 1465 1462 1460 1458 1456 1455 1455 1455 1454 1455 1456 1457 1459 1460 1462 1464 1467 1469 1472 1475 1477 1480 1482 1485 1487
1500 1504 1503 1500 1496 1495 1494 1492 1489 1489 1489 1489 1484 1482 1477 1475 1474 1471 1468 1465 1463 1461 1459 1457 1455 1454 1454 1454 1454 1455 1456 1457 1458 1460 1462 1464 1467 1469 1472 1474 1477 1479 1481 1484
1502 1504 1502 1499 1494 1492 1491 1488 1487 1486 1486 1485 1483 1481 1476 1475 1473 1470 1468 1465 1463 1461 1459 1457 1456 1455 1454 1454 1454 1454 1454 1456 1457 1459 1461 1463 1465 1467 1470 1472 1474 1476 1478 1481
1504 1504 1503 1500 1496 1491 1491 1486 1484 1483 1481 1481 1480 1478 1476 1475 1473 1471 1468 1466 1464 1462 1460 1458 1456 1455 1454 1454 1454 1453 1454 1454 1456 1457 1459 1461 1463 1466 1468 1470 1472 1474 1476 1478
1502 1503 1505 1504 1500 1500 1488 1483 1482 1481 1479 1479 1477 1476 1475 1475 1473 1470 1469 1467 1464 1462 1460 1457 1456 1455 1454 1453 1453 1453 1453 1454 1455 1456 1458 1460 1462 1464 1466 1468 1470 1472 1474 1476
1499 1501 1505 1507 1506 1496 1486 1483 1483 1483 1480 1477 1477 1475 1474 1473 1470 1469 1468 1466 1464 1462 1459 1457 1455 1454 1452 1452 1452 1452 1452 1453 1454 1456 1457 1459 1461 1463 1465 1466 1468 1470 1472 1473
1499 1500 1506 1508 1502 1494 1486 1483 1481 1483 1480 1476 1475 1474 1473 1472 1472 1469 1467 1465 1463 1460 1458 1456 1454 1452 1451 1451 1451 1451 1451 1452 1453 1455 1456 1458 1460 1461 1463 1465 1467 1468 1470 1471
1504 1506 1508 1508 1505 1493 1485 1482 1481 1486 1480 1475 1474 1473 1473 1472 1471 1468 1465 1463 1461 1459 1457 1455 1453 1451 1450 1450 1450 1450 1451 1452 1453 1454 1455 1457 1458 1460 1462 1463 1465 1467 1468 1469
1503 1506 1507 1507 1504 1494 1481 1481 1483 1480 1476 1474 1472 1472 1470 1469 1467 1466 1464 1462 1460 1457 1455 1454 1452 1451 1450 1450 1449 1449 1449 1451 1452 1453 1454 1455 1457 1459 1460 1461 1463 1464 1465 1466
1499 1497 1496 1495 1489 1481 1479 1478 1477 1476 1474 1472 1471 1469 1468 1467 1465 1463 1462 1460 1458 1457 1455 1453 1452 1450 1450 1449 1449 1448 1449 1450 1451 1452 1453 1454 1456 1457 1458 1459 1460 1461 1462 1463
1493 1491 1491 1489 1481 1478 1477 1475 1474 1474 1472 1471 1469 1468 1466 1464 1463 1461 1460 1459 1457 1456 1454 1453 1451 1450 1449 1449 1448 1449 1449 1450 1450 1451 1452 1453 1454 1455 1456 1457 1458 1459 1459 1460
1487 1487 1487 1484 1478 1475 1472 1472 1471 1470 1470 1468 1467 1466 1464 1463 1461 1460 1458 1457 1455 1454 1453 1452 1451 1450 1449 1448 1448 1448 1448 1449 1449 1450 1450 1451 1452 1453 1454 1455 1456 1456 1457 1457
1479 1480 1481 1476 1472 1473 1470 1469 1468 1467 1466 1465 1464 1463 1462 1461 1459 1458 1456 1455 1455 1454 1453 1452 1451 1449 1448 1448 1447 1447 1447 1448 1448 1448 1448 1449 1450 1451 1451 1452 1453 1453 1454 1454